Other Public Products
Issued by NWS Grand Forks, ND

Home | Current Version | Previous Version | Graphics & Text | Print | Product List | Glossary On
Versions: 1 2 3 4 5 6 7 8 9 10 11 12 13 14 15 16 17 18 19 20 21 22 23 24 25 26 27 28 29 30 31 32 33 34 35 36 37 38 39 40 41 42 43 44 45 46 47 48 49 50
000
FPUS83 KFGF 120310
OPUFGF
PRAIRIE TO PINES WEATHER ROUNDUP
NATIONAL WEATHER SERVICE EASTERN NORTH DAKOTA/GRAND FORKS ND
900 PM CST MON DEC 11 2017

 **SATELLITE DATA USED TO AUGMENT SKY COVER AT AUTOMATED STATIONS**
 *****  WEATHER ACROSS EASTERN NORTH DAKOTA  *****

CITY           SKY/WX    TMP DP  RH WIND       PRES   REMARKS
GRAND FORKS    FAIR       4   2  91 W5        30.34F WCI  -5
GRND FORKS AFB CLEAR      6   2  86 W3        30.34F
GRND FORKS NWS   N/A      5 N/A N/A NW2         N/A
BUXTON         NOT AVBL
DEVILS LAKE    FAIR      13  11  92 SW6       30.30F WCI   4
FARGO          FAIR       8   4  83 NW7       30.36S WCI  -3
WAHPETON ARPT    N/A     12   5  73 N10G18    30.36S WCI  -1
$$

 *****  WEATHER ACROSS CENTRAL AND WESTERN NORTH DAKOTA  *****

CITY           SKY/WX    TMP DP  RH WIND       PRES   REMARKS
JAMESTOWN      FAIR      15  11  83 NW5       30.31F WCI   8
BISMARCK       FAIR      21  16  81 SW3       30.34F
MINOT          MOCLDY    22  19  89 SW7       30.29F WCI  13
MINOT AFB      MOCLDY    16  14  90 W7        30.27F WCI   6
GARRISON         N/A     29  25  85 W7        30.30F WCI  22
WILLISTON        N/A    N/A N/A N/A MISG      30.33S
DICKINSON      CLOUDY    34  30  85 W8        30.31S
HETTINGER      CLOUDY    35  25  66 NW13      30.35S
$$

 *****  OTHER OBSERVATIONS NORTHEAST NORTH DAKOTA  *****

CITY           SKY/WX    TMP DP  RH WIND       PRES   REMARKS
WALHALLA       FAIR      10  10 100 CALM      30.32F
LANGDON        MOCLDY     5   5 100 SW5       30.27F WCI  -4
CAVALIER       CLOUDY    10   7  85 W3        30.32F
GRAFTON        FAIR       7   5  92 W5        30.36F WCI  -2
CANDO          FAIR      10  10 100 W7        30.30F WCI   0
FORT TOTTEN      N/A     14  12  90 W2        29.95S
ROLLA          MOCLDY    14  12  92 NW3       30.26S
RUGBY          FAIR      14  12  92 SW7       30.29S WCI   4
 ***** THE ABOVE OBSERVATIONS ARE NON NWS ARE NOT QUALITY
        CONTROLLED AND MAY MIS-REPORT RAIN FOR SNOW...
$$

 *****  OTHER OBSERVATIONS SOUTHEAST NORTH DAKOTA *****

CITY           SKY/WX    TMP DP  RH WIND       PRES   REMARKS
COOPERSTOWN    FAIR      10   7  85 CALM      30.32S
VALLEY CITY    FAIR      12  12 100 CALM      30.33F
OAKES            N/A     14  12  92 NW3       30.34S
GWINNER          N/A     14  10  85 NW6       30.34S WCI   5
SHEYENNE NWR     N/A     13   8  81 N3        29.95S
BUFFALO        NOT AVBL
WYNDMERE       NOT AVBL
 ***** THE ABOVE OBSERVATIONS ARE NON NWS ARE NOT QUALITY
       CONTROLLED AND MAY MIS-REPORT RAIN FOR SNOW...
$$

  *****  WEATHER ACROSS NORTHERN MINNESOTA  *****

CITY           SKY/WX    TMP DP  RH WIND       PRES   REMARKS
FLAG ISLAND    FAIR       3   0  85 NW13      30.23F WCI -14
WARROAD        FAIR       1   0  92 SW5       30.28S WCI  -8
ROSEAU         FAIR       3   0  85 W7        30.29S WCI  -9
HALLOCK        FAIR       3   1  92 SW5       30.32F WCI  -6
THF RVR FALLS  FAIR       4   0  83 NW5       30.31F WCI  -5
HALSTAD        NOT AVBL
FOSSTON        FAIR       1  -2  85 NW5       30.31R WCI  -8
BAUDETTE       FAIR       4   0  83 NW13      30.24R WCI -13
WASKISH        FAIR       5   1  85 NW7       30.26R WCI  -7
CROOKSTON      FAIR       3   0  85 N5        30.35F WCI  -6
$$
  *****  WEATHER ACROSS CENTRAL AND WEST MINNESOTA  *****

CITY           SKY/WX    TMP DP  RH WIND       PRES   REMARKS
BEMIDJI        FAIR       3  -1  83 NW10      30.25S WCI -13
PARK RAPIDS    FAIR       6   1  80 NW10      30.24R WCI  -9
WADENA         FAIR       5   1  85 NW10      30.25R WCI -10
DETROIT LAKES  LGT SNOW   7   5  92 N12       30.30R WCI  -9
MOORHEAD       FAIR       7   1  78 CALM      30.36S
FERGUS FALLS   FAIR       9   3  78 N13       30.36R WCI  -7
ELBOW LAKE     FAIR      10   6  84 NW14      30.31R WCI  -7
MORRIS MN      FAIR      12   7  79 NW20      30.30R WCI  -6
STAPLES        FAIR       7   1  78 NW10      30.24R WCI  -8
WHEATON        FAIR      12   9  85 NW8       30.37R WCI   1
$$
  *****  WEATHER ELSEWHERE ACROSS MINNESOTA  *****

CITY           SKY/WX    TMP DP  RH WIND       PRES   REMARKS
DULUTH         MOCLDY    12   5  73 NW10G22   30.08R WCI  -1
INTRNTL FALLS  FAIR       5   0  79 NW9       30.20R WCI  -9
ELY            CLOUDY     9   1  72 NW13G23   30.09R WCI  -7
CLOQUET        FAIR      12   5  73 NW12G21   30.11S WCI  -2
BRAINERD       MOCLDY    11   5  77 NW9       30.22R WCI  -2
HIBBING        MOCLDY     9   2  73 NW24G30   30.14R WCI -12
ALEXANDRIA     FAIR       9   4  80 NW12      30.26R WCI  -6
SAINT CLOUD    FAIR      15   9  76 NW17      30.21R WCI  -1
MINNEAPOLIS    FAIR      21  12  68 N17       30.19R WCI   7
$$

  *****  WEATHER ACROSS SOUTH DAKOTA  *****

CITY           SKY/WX    TMP DP  RH WIND       PRES   REMARKS
SIOUX FALLS    FAIR      20  15  81 N15       30.32R WCI   6
BROOKINGS      FAIR      16  13  88 N9        30.31R WCI   4
WATERTOWN      FAIR      15  12  88 N12       30.30R WCI   2
HURON          FAIR      16  14  92 N7        30.37R WCI   6
SISSETON         N/A     13  11  92 NW9       30.34R WCI   1
ABERDEEN       FAIR      14  11  87 NW5       30.37R WCI   6
MITCHELL       FAIR      21  17  84 NW9       30.38R WCI  11
PIERRE         CLOUDY    31  27  85 NW10      30.36S WCI  22
MOBRIDGE       MOCLDY    29  23  78 NE3       30.32F
RAPID CITY     FAIR      25  20  81 N10       30.39R WCI  15
$$

  *****  SOME WEATHER IN NEARBY STATES *****

CITY           SKY/WX    TMP DP  RH WIND       PRES   REMARKS
GLASGOW MT     FAIR      30  22  72 SW3       30.32F
GREAT FALLS MT FAIR      40  14  34 S14       30.34F
CHEYENNE WY    FAIR      34  14  43 N12       30.42S
SCOTTSBLUFF NE FAIR      27  13  55 NW9       30.41S WCI  18
OMAHA NE       FAIR      32  21  64 NW21      30.26R WCI  20
DES MOINES IA  CLOUDY    29  19  66 NW22G32   30.18R WCI  15
DAVENPORT IA   CLOUDY    34  29  82 NW16G25   30.00R WCI  24
CHICAGO IL     CLOUDY    32  27  81 NW21G26   29.82R WCI  20
EAU CLAIRE WI  FAIR      19   8  62 N16G24    30.09R WCI   4
LA CROSSE WI   FAIR      25  13  60 N18G28    30.06R WCI  11
$$

  *****  SOME NATIONAL WEATHER *****

CITY           SKY/WX    TMP DP  RH WIND       PRES   REMARKS
LA GUARDIA NY  MOCLDY    40  21  46 S7        29.98F
RALEIGH NC     FAIR      41  29  62 S8        29.97F
ATLANTA GA     FAIR      50  36  58 W9        29.99S
NEW ORLEANS LA FAIR      53  47  79 SW7       30.16R
OKLAHOMA CITY  FAIR      46  20  35 N9        30.24R
ALBUQUERQUE NM FAIR      36   2  23 S3        30.40R
SALT LAKE CITY SNOW      27  25  92 CALM      30.59R VSB 1/4
LOS ANGELES CA FAIR      63  41  44 W7        30.18R
BOISE ID       CLOUDY    25  21  85 CALM      30.65R
SEATTLE WA     FAIR      43  32  65 S6        30.39R
$$

*** WEATHER ACROSS MANITOBA...SASKATCHEWAN AND ONTARIO ***
                ***ONTARIO***

CITY           SKY/WX    TMP DP  RH WIND       PRES   REMARKS
GERALDTON      LGT SNOW   0  -6  78 N9G17     29.97R DRFTSNOWWCI -16
THUNDER BAY    FLURRIES   7  -2  66 N12G17    30.09R WCI  -9
SIOUX LOOKOUT  FLURRIES   0  -6  78 NW12G18   30.11S WCI -18
TORONTO        CLOUDY    27  23  86 NE3       29.75F
BIG TROUT LK   FLURRIES  -6 -11  77 NW12G18   30.07S WCI -24
PICKLE LAKE    NOT AVBL
DRYDEN         PTCLDY     0  -4  85 W7        30.14R WCI -13
KENORA         CLEAR      1  -2  85 NW7       30.19S WCI -11
$$
                *** MANITOBA***

CITY           SKY/WX    TMP DP  RH WIND       PRES   REMARKS
BRANDON        CLOUDY    19  16  86 SW7       30.25F WCI  10
DAUPHIN        CLOUDY    21  18  86 W9        30.23F WCI  11
ISLAND LAKE    CLEAR    -11 -15  84 NW7       30.18S WCI -26
PILOT MOUND      N/A      7   5  92 SW6         N/A  WCI  -3
THE PAS        CLOUDY    10   7  85 SE7       30.17F WCI   0
THOMPSON       NOT AVBL
WINNIPEG       CLEAR      3   0  85 VRB2      30.30F
LYNN LAKE      CLOUDY    -2  -6  84 SE3       30.10F
CHURCHILL      CRYSTALS -13 -18  77 NW16      30.09S WCI -37
GILLAM         CLEAR    -13 -20  70 W8        30.13F WCI -30
$$
                ***SASKATCHEWAN***

CITY           SKY/WX    TMP DP  RH WIND       PRES   REMARKS
ESTEVAN        PTCLDY    30  28  93 W8        30.26F WCI  23
KINDERSLEY     PTCLDY    27  21  80 SW12      30.20F WCI  16
LLOYDMINSTER   PTCLDY    34  25  69 SW12      30.09F
PRINCE ALBERT  CLOUDY    27  25  93 SW6       30.14F WCI  20
REGINA         CLEAR     25  23  93 W9        30.23F WCI  15
YORKTON        FLURRIES  30  28  93 SW8       30.17F WC



USA.gov is the U.S. government's official web portal to all federal, state and local government web resources and services.